[[{"header":{"parameterUnit":"m.s-1","parameterCategory":1,"la1":30.2992,"la2":30.254,"lo1":-89.0895,"lo2":-89.0443,"dy":0.0025,"dx":0.0025,"nx":19,"ny":19,"refTime":"2026-04-20T09:00:00:Z","depth":0,"parameterNumber":2,"parameterNumberName":"U-component_of_WINDS"},"data":[0,0,0,-4.5474,-4.5475,-4.5524,-4.5524,-4.5598,-4.5599,0,0,0,0,0,0,0,0,0,0,0,-4.5466,-4.5467,-4.5474,-4.5475,-4.5524,-4.5524,-4.5598,-4.5599,0,0,0,0,0,0,0,0,0,0,0,-4.5466,-4.5467,-4.5468,-4.5475,-4.5524,-4.5524,-4.5598,-4.5557,0,0,0,0,0,0,0,0,0,0,-4.5508,-4.5507,-4.5467,-4.5468,-4.5476,-4.5524,-4.5524,-4.5555,-4.5559,-4.5581,0,-4.5602,0,-4.5602,-4.5604,-4.5605,0,0,0,-4.547,-4.5503,-4.551,-4.5468,-4.5476,-4.5524,-4.55,-4.5557,-4.5562,-4.5587,-4.5603,-4.5605,-4.5603,-4.5605,-4.5605,-4.5747,-4.5748,0,0,-4.5467,-4.5478,-4.5506,-4.5514,-4.5507,-4.5499,-4.5502,-4.556,-4.5578,-4.5603,-4.5607,-4.5604,-4.5606,-4.5606,-4.5746,-4.5748,0,0,0,-4.5463,-4.5477,-4.5482,-4.5511,-4.5519,-4.55,-4.5504,-4.5575,-4.5576,-4.5607,-4.5605,-4.5606,-4.5607,-4.5745,-4.5747,-4.5802,0,0,0,-4.5461,-4.5474,-4.5481,-4.5489,-4.5518,-4.5548,-4.5518,-4.5572,-4.5578,-4.5605,-4.5606,-4.5608,-4.5744,-4.5746,-4.5798,-4.5825,0,0,0,-4.5461,-4.5474,-4.5483,-4.5489,-4.551,-4.5546,-4.555,-4.5573,-4.5577,-4.5605,-4.5608,-4.5744,-4.5746,-4.5795,-4.582,-4.5866,0,0,0,-4.5463,-4.5531,-4.5485,-4.556,-4.551,-4.558,-4.555,-4.5602,-4.5632,-4.5607,-4.5745,-4.5747,-4.5794,-4.5816,-4.5862,-4.5905,-4.5925,0,0,-4.5555,-4.5542,-4.5586,-4.5546,-4.5627,-4.5572,-4.5662,-4.5679,-4.5672,-4.5723,-4.5726,-4.5799,-4.5819,-4.5865,-4.6031,-4.6046,0,0,0,-4.5619,-4.565,-4.5669,-4.5699,-4.5715,-4.5731,-4.5733,-4.574,-4.5783,-4.57,-4.5828,-4.584,-4.5866,-4.5886,-4.5899,-4.5921,-4.5757,-4.5757,-4.5756,-4.5763,-4.5751,-4.5822,-4.5817,-4.5846,-4.585,-4.5873,-4.5883,-4.5861,-4.5892,-4.5906,-4.6009,-4.6033,-4.6042,-4.6065,-4.5929,-4.5929,-4.593,-4.593,-4.5895,-4.5937,-4.5909,-4.5968,-4.5956,-4.6005,-4.6012,-4.5996,-4.604,-4.5996,-4.6019,-4.597,-4.606,-4.6079,-4.5934,-4.5933,-4.5933,-4.5932,-4.5932,-4.5987,-4.6005,-4.6013,-4.6057,-4.6092,-4.6085,-4.6129,-4.6116,-4.6104,-4.6127,-4.6141,-4.614,-4.6137,-4.6135,-4.6135,-4.6136,-4.6136,-4.6136,-4.6136,-4.6078,-4.6086,-4.6125,-4.6149,-4.6168,-4.6191,-4.6197,-4.6215,-4.6231,-4.6218,-4.6218,-4.6194,-4.6071,-4.604,-4.6142,-4.6141,-4.614,-4.614,-4.6139,-4.6215,-4.6182,-4.6243,-4.6261,-4.629,-4.6326,-4.631,-4.6348,-4.6362,-4.6384,-4.6356,-4.6268,-4.6254,-4.6243,-4.6217,-4.6359,-4.6359,-4.6359,-4.6359,-4.6291,-4.6284,-4.6343,-4.6374,-4.6403,-4.6396,-4.6465,-4.6472,-4.6474,-4.6481,-4.646,-4.6424,-4.6414,-4.6406,-4.6392,-4.6367,-4.6544,-4.6545,-4.6545,-4.6374,-4.637,-4.643,-4.6432,-4.6454,-4.6473,-4.6538,-4.6576,-4.6571,-4.6552,-4.6487,-4.6479,-4.6423,-4.6405,-4.6382,-4.636,-4.6315,0,0]},{"header":{"parameterUnit":"m.s-1","parameterCategory":1,"la1":30.2992,"la2":30.254,"lo1":-89.0895,"lo2":-89.0443,"dy":0.0025,"dx":0.0025,"nx":19,"ny":19,"refTime":"2026-04-20T09:00:00:Z","depth":0,"parameterNumber":3,"parameterNumberName":"V-component_of_WINDS"},"data":[0,0,0,4.4975,4.4975,4.4993,4.4993,4.5013,4.5013,0,0,0,0,0,0,0,0,0,0,0,4.4969,4.4969,4.4975,4.4975,4.4993,4.4993,4.5013,4.5013,0,0,0,0,0,0,0,0,0,0,0,4.4969,4.4969,4.4969,4.4975,4.4993,4.4993,4.5013,4.5,0,0,0,0,0,0,0,0,0,0,4.4983,4.4977,4.4969,4.4969,4.4976,4.4993,4.4993,4.5,4.5001,4.5004,0,4.5007,0,4.5011,4.5014,4.5014,0,0,0,4.4976,4.4976,4.4982,4.4969,4.4976,4.4993,4.4985,4.5,4.5002,4.5006,4.5008,4.5008,4.5011,4.5015,4.5015,4.5035,4.5035,0,0,4.4975,4.4971,4.4981,4.4983,4.4981,4.4985,4.4986,4.5001,4.5002,4.5008,4.5009,4.5011,4.5015,4.5015,4.5034,4.5035,0,0,0,4.4972,4.497,4.4976,4.4982,4.4985,4.4985,4.4986,4.5002,4.5004,4.5009,4.5012,4.5015,4.5015,4.5034,4.5034,4.5036,0,0,0,4.4971,4.4968,4.4975,4.4973,4.4985,4.4994,4.4986,4.5003,4.5005,4.5011,4.5015,4.5015,4.5034,4.5034,4.5036,4.5036,0,0,0,4.4968,4.4968,4.4971,4.4973,4.4981,4.4994,4.4997,4.5003,4.5006,4.5014,4.5015,4.5034,4.5034,4.5035,4.5036,4.5041,0,0,0,4.4963,4.497,4.4971,4.4979,4.4981,4.4995,4.4997,4.5007,4.5014,4.5015,4.5034,4.5034,4.5035,4.5036,4.5041,4.5045,4.5046,0,0,4.4969,4.497,4.4976,4.4977,4.4991,4.4993,4.5006,4.5015,4.5018,4.5029,4.5029,4.5036,4.5036,4.5041,4.5056,4.5057,0,0,0,4.4977,4.4981,4.4985,4.4993,4.5002,4.5009,4.5017,4.5021,4.503,4.5023,4.5039,4.5039,4.5043,4.5044,4.5045,4.5048,4.5035,4.5035,4.5035,4.4979,4.4986,4.4996,4.5005,4.5012,4.5022,4.5028,4.5035,4.5036,4.504,4.5043,4.5051,4.5054,4.5054,4.5057,4.5046,4.5046,4.5046,4.5046,4.4989,4.4996,4.5002,4.5014,4.502,4.503,4.504,4.5042,4.5051,4.5049,4.5052,4.5049,4.5055,4.5058,4.5046,4.5046,4.5046,4.5046,4.5046,4.4991,4.4996,4.5002,4.5016,4.5025,4.5034,4.5044,4.5049,4.5053,4.5057,4.5061,4.5061,4.5061,4.5058,4.5058,4.5059,4.5059,4.5059,4.5059,4.4991,4.4998,4.5006,4.5018,4.5025,4.5035,4.5047,4.5053,4.5061,4.5064,4.5064,4.5066,4.5055,4.5052,4.5059,4.5059,4.5059,4.5059,4.5059,4.4998,4.4998,4.5011,4.5018,4.5034,4.5044,4.5051,4.5064,4.507,4.5075,4.5078,4.5069,4.507,4.5069,4.5066,4.5076,4.5076,4.5076,4.5076,4.4999,4.5001,4.5017,4.5028,4.504,4.5049,4.5064,4.5073,4.5083,4.5087,4.5087,4.5084,4.5083,4.5084,4.5083,4.5081,4.5095,4.5095,4.5095,4.5004,4.5008,4.5019,4.5031,4.5044,4.5055,4.507,4.5082,4.5093,4.5096,4.5091,4.509,4.5086,4.5084,4.5085,4.5084,4.508,0,0]}]]